Terminal Aerodrome Forecast
Issued by NWS Pueblo, CO

Home | Current Version | Previous Version | Text Only | Print | Product List | Glossary On
Versions: 1 2 3 4 5 6 7 8 9 10 11 12 13 14 15 16 17 18 19 20 21 22 23 24 25 26 27 28 29 30 31 32 33 34 35 36 37 38 39 40
000
FTUS45 KPUB 021355 AAA
TAFPUB
TAF AMD
KPUB 021355Z 0214/0312 28009KT P6SM SCT100
     FM021900 12008KT P6SM FEW100
     FM030200 VRB06KT P6SM FEW200
     FM031000 01015G25KT P6SM SCT200=

USA.gov is the U.S. government's official web portal to all federal, state and local government web resources and services.